Location: Sungai Buloh
(3.1000°N, 113.0000°E)
Time: 22:38:52
(UTC+00:00)

BREEZE-M DEB (TANK) - Pass Details

Date: 12 January 2026
Orbit: 455 x 14805 km, 45.9° (Epoch: 11 February)

Event Time Altitude Azimuth Distance (km) Brightness Sun altitude
Exits shadow 21:01:00 30° 182° (S) 833 3.9 -23.3°
Drops below altitude 10° 21:03:01 10° 155° (SSE) 1,707 5.9 -22.8°
Sets 21:05:32 0° 147° (SSE) 2,960 7.4 -22.3°
